Regional Weather Roundup
Issued by NWS

Home | Current Version | Previous Version | Graphics & Text | Print | Product List | Glossary On
Versions: 1 2 3 4 5 6 7 8 9 10 11 12 13 14 15 16 17 18 19 20 21 22 23 24 25 26 27 28 29 30 31 32 33 34 35 36 37 38 39 40 41 42 43 44 45 46 47 48 49 50
000
ASUS43 KMKX 242159
RWRWI

WISCONSIN REGIONAL WEATHER ROUNDUP
NATIONAL WEATHER SERVICE MILWAUKEE/SULLIVAN WI
500 PM CDT TUE APR 24 2018

NOTE: "FAIR" INDICATES FEW OR NO CLOUDS BELOW 12,000 FEET WITH NO
SIGNIFICANT WEATHER AND/OR OBSTRUCTIONS TO VISIBILITY.

WIZ001-002-006>008-014>016-023>028-242300-
NORTHWEST WISCONSIN

CITY           SKY/WX    TMP DP  RH WIND       PRES   REMARKS
SUPERIOR ARPT  FAIR      58  30  35 NW9       30.16F
ASHLAND        FAIR      48  33  56 SE7       30.18F
HAYWARD        PTSUNNY   51  36  56 MISG      30.17F
SIREN          FAIR      55  33  44 N9G16     30.17F
CUMBERLAND     LGT RAIN  46  32  57 N9        30.16S
RICE LAKE      PTSUNNY   51  33  50 N14G22    30.16S
CHETEK         CLOUDY    53  34  48 N12G22    30.13S
LADYSMITH      PTSUNNY   51  32  48 N20G29    30.16R
EAU CLAIRE     NOT AVBL
MENOMONIE      PTSUNNY   61  29  29 N17G24    30.11R
NEW RICHMOND   CLOUDY    54  32  43 N20G33    30.16R
OSCEOLA        CLOUDY    54  36  51 N10G16    30.20R
$$

WIZ003>005-009-010-017-018-242300-
NORTH CENTRAL WISCONSIN

CITY           SKY/WX    TMP DP  RH WIND       PRES   REMARKS
MANITOWISH WTR CLOUDY    45  26  48 N12G18    30.15R
ARBOR VITAE    CLOUDY    51  31  47 N16G23    30.12R
WOODRUFF       CLOUDY    51  31  47 N16G23    30.12R
RHINELANDER    CLOUDY    57  29  34 VRB7      30.09R
EAGLE RIVER    FAIR      49  26  41 N17G23    30.11R
LAND O LAKES   CLOUDY    45  26  48 N13G18    30.16R
PHILLIPS       CLOUDY    49  29  47 N12G18    30.14R
TOMAHAWK       PTSUNNY   58  28  31 N13       30.09R
MEDFORD        FAIR      61  34  36 N17       30.06S
MERRILL        FAIR      65  33  31 N12G22    30.05S
$$

WIZ029-030-035-036-043>047-242300-
CENTRAL WISCONSIN

CITY           SKY/WX    TMP DP  RH WIND       PRES   REMARKS
WAUSAU         CLOUDY    65  33  30 N8        30.01S
MOSINEE        PTSUNNY   63  34  34 N12G28    30.04S
MARSHFIELD     CLOUDY    65  37  35 N7        30.03S
STEVENS POINT  CLOUDY    64  34  32 N8        30.02S
WAUPACA        PTSUNNY   71  30  21 E7        30.01F
WAUTOMA        FAIR      70  29  21 N9        30.00F
WISC RAPIDS    CLOUDY    67  37  33 N14       30.02S
CAMP DOUGLAS   NOT AVBL
$$

WIZ011>013-019>022-031-037>040-048>050-242300-
NORTHEAST WISCONSIN

CITY           SKY/WX    TMP DP  RH WIND       PRES   REMARKS
ANTIGO         CLOUDY    59  38  47 N8        30.04S
SHAWANO        PTSUNNY   64  33  30 E5        30.03R
OCONTO         PTSUNNY   56  33  42 NE8       30.05S
STURGEON BAY   FAIR      57  30  35 E6        30.05S
GREEN BAY      PTSUNNY   54  34  46 NE15      30.03S
MANITOWOC      CLOUDY    59  50  72 E8        30.04S
APPLETON       PTSUNNY   64  19  17 E7        30.00F
CLINTONVILLE   PTSUNNY   64  32  30 SE6       30.02S
OSHKOSH        CLOUDY    66  35  31 NE9       30.01S
$$

WIZ032>034-041-042-053>061-242300-
SOUTHWEST WISCONSIN

CITY           SKY/WX    TMP DP  RH WIND       PRES   REMARKS
LA CROSSE      CLOUDY    70  38  31 N14G24    30.02R
SPARTA         CLOUDY    69  37  30 N10       30.03F
VIROQUA        CLOUDY    67  40  38 N13       30.02S
BOSCOBEL       FAIR      76  36  23 NW8G16    30.00R
PRAIRIE DU CHI FAIR      73  29  19 W6        30.00F
PLATTEVILLE    FAIR      72  32  22 N9        29.99F
$$

WIZ056-057-062-063-064-067-068-242300-
SOUTH CENTRAL WISCONSIN

CITY           SKY/WX    TMP DP  RH WIND       PRES   REMARKS
REEDSBURG      FAIR      71  35  27 N7        29.99S
BARABOO/DELLS  FAIR      72  30  21 N9        29.99F
LONE ROCK      FAIR      73  34  23 N8        29.99S
MINERAL POINT  FAIR      72  27  18 N9        30.00S
MADISON        FAIR      72  32  23 NE14      29.97F
MIDDLETON      FAIR      73  26  17 N5        29.99F
WATERTOWN      FAIR      68  30  24 N10       29.99S
MONROE         FAIR      72  28  20 N15G21    29.98F
JANESVILLE     SUNNY     73  16  11 N9        29.97F
$$

WIZ051-052-058>065-066-070>072-242300-
SOUTHEAST WISCONSIN

CITY           SKY/WX    TMP DP  RH WIND       PRES   REMARKS
MILWAUKEE      FAIR      57  48  72 E9        30.02R
WAUKESHA       SUNNY     64  43  45 E9G17     30.00S
MILWAUKEE/TIMM MOSUNNY   57  45  62 E8        30.02R
RACINE         FAIR      59  48  67 NE9       30.02S
BURLINGTON     FAIR      67  47  49 E10       29.98S
KENOSHA        FAIR      60  47  61 E10       30.00S
FOND DU LAC    CLOUDY    65  44  46 N9        30.01S
SHEBOYGAN      FAIR      61  51  70 NE3       30.02S
WEST BEND      FAIR      63  45  51 E8        30.00S
JUNEAU         FAIR      66  30  26 N12       30.02S
$$

LSZ147-162-242300-
LAKE SUPERIOR

STATION/POSITION TIME  TEMP    WIND        PRES    WAVE
                       AIR SEA DIR/SP/G            HT/PER
                 (UTC) (F)     (DEG/KT/KT) (MB)    (FT/S)
DEVILS ISLAND    2100   50     220/  6/  8 1022.4F
SAXON HARBOR     2130   44     190/  2/  4 1022.0F
$$

LMZ867-665-643>646-242300-
LAKE MICHIGAN

STATION/POSITION TIME  TEMP    WIND        PRES    WAVE
                       AIR SEA DIR/SP/G            HT/PER
                 (UTC) (F)     (DEG/KT/KT) (MB)    (FT/S)
NORTHPORT PIER   2140   45                 1017.9S
KEWAUNEE LAKESHO 2130   48      30/  4/  6 1016.9R
SHEBOYGAN LAKESH 2100   44      20/  7/  8 1017.0F
PORT WASHINGTON  2130   47      40/  7/  9 1017.6S
MILWAUKEE LAKESH 2130   42      40/  6/  6   N/A
KENOSHA   LAKESH 2100   42                 1016.3
$$

TC  - TEMPERATURE IN CELSIUS
VSB - VISIBILITY IN STATUTE MILES
WCI - WIND CHILL INDEX
HX  - HEAT INDEX




USA.gov is the U.S. government's official web portal to all federal, state and local government web resources and services.